Weather Roundup
Issued by NWS Chicago, IL

Home | Current Version | Previous Version | Text Only | Print | Product List | Glossary On
Versions: 1 2 3 4 5 6 7 8 9 10 11 12 13 14 15 16 17 18 19 20 21 22 23 24 25 26 27 28 29 30 31 32 33 34 35 36 37 38 39 40 41 42 43 44 45 46 47 48 49 50
000
NZUS59 KLOT 251510
HRRLOT

CHICAGO AREA WEATHER ROUNDUP
NATIONAL WEATHER SERVICE CHICAGO/ROMEOVILLE IL
1000 AM CDT SAT OCT 25 2014

NOTE: "FAIR" INDICATES FEW OR NO CLOUDS BELOW 12,000 FEET WITH NO
SIGNIFICANT WEATHER AND/OR OBSTRUCTIONS TO VISIBILITY.

* THESE STATIONS ARE NOT UNDER NWS QUALITY CONTROL. THEY ALSO MAY NOT
  REPORT WEATHER SUCH AS PRECIPITATION OR FOG.

ILZ005-006-012>014-019>023-251600-
NORTHEAST ILLINOIS

CITY           SKY/WX    TMP DP  RH WIND       PRES   REMARKS
OHARE          MOSUNNY   63  51  65 NW12      29.93R
MIDWAY         MOSUNNY   64  54  69 W15       29.93S
AURORA         SUNNY     61  54  77 NW13      29.97S HAZE
LANSING*       PTSUNNY   61  56  84 W13       29.94S HAZE
JOLIET*        PTSUNNY   60  55  84 W9        29.96S FOG
WAUKEGAN       SUNNY     62  49  62 W10       29.93R
DUPAGE AIRPORT SUNNY     62  53  72 NW12      29.95R
WHEELING       SUNNY     65  50  58 NW13      29.96R
KANKAKEE*      PTSUNNY   59  55  88 W12       29.97S FOG
MORRIS*        MOSUNNY   61  57  86 W10       29.96S FOG
LEWIS AIRPORT* MOSUNNY   61  56  82 W6        29.96S HAZE
NORTHERLY IS     N/A     62  52  69 W13         N/A
$$

WIZ051-052-058>065-066-070>072-251600-
SOUTHEAST WISCONSIN

CITY           SKY/WX    TMP DP  RH WIND       PRES   REMARKS
MILWAUKEE      MOSUNNY   61  46  57 NW10      29.91R
KENOSHA*       SUNNY     62  50  64 NW14      29.92R
RACINE*        SUNNY     61  49  64 W12       29.93R
BURLINGTON     SUNNY     59  47  63 NW10G18   29.94R
WAUKESHA       SUNNY     57  46  67 W9        29.94R
WEST BEND      SUNNY     59  43  55 W14       29.91R
$$

INZ001>003-010>013-019-020-251600-
NORTHWEST INDIANA

CITY           SKY/WX    TMP DP  RH WIND       PRES   REMARKS
GARY*          MOSUNNY   63  55  77 W9        29.95R FOG
MICHIGAN CITY* NOT AVBL
RENSSELAER*    NOT AVBL
VALPARAISO     MOSUNNY   58  54  86 W9        29.95R FOG
$$

LMZ740>746-251600-
SOUTHERN LAKE MICHIGAN

STATION/POSITION TIME  SKY/WX   TEMP WIND        PRES    VSBY
                                AIR  DIR/SP/G
                 (UTC)          (F)  (DEG/KT/KT) (MB)    (MI)
HARRISON CRIB    1400            58  280/ 12/ 15   N/A
BURNHAM HARBOR   1500            63  280/ 12/ 16   N/A
CALUMET HARBOR   1500            63  260/  5/ 11 1012.4R
BURNS HARBOR     NOT AVBL
MICHIGAN CITY    1500            57  220/ 14/ 15   N/A
$$

ABBREVIATIONS USED IN REMARKS
   TC - TEMPERATURE IN CELSIUS
  WCI - WIND CHILL INDEX
   HX - HEAT INDEX
  VSB - VISIBILITY
$$



USA.gov is the U.S. government's official web portal to all federal, state and local government web resources and services.